RH
25 25 26 26 27 28 28 27 27 27 26 25 25 25 25 26 26 25 25 25 24 24 24 23 23 23 23 23 23 24 24 24 24 24 23 23 23 22 22 22 22 22 22 23 23 24 24 25 25 26 26 27 27 28 28 29 29 29 29 29 29 29 29 29 30 30 30 30 30 31 31 31 32 32 32 32 32 32 33 33 35 37 41 44 45 46
26 27 27 28 29 30 30 29 29 28 28 27 27 27 27 27 27 26 25 25 25 25 25 24 24 24 23 23 23 24 24 25 25 25 25 25 25 25 24 24 23 23 23 24 24 24 25 26 27 27 28 29 29 30 31 32 32 32 32 32 33 33 33 33 34 34 34 35 36 36 36 37 37 37 37 37 36 36 36 36 36 37 40 45 47 48
27 28 29 29 30 31 32 31 30 29 29 28 28 28 28 28 27 27 26 25 25 26 26 26 26 25 25 25 25 26 26 27 27 27 27 27 27 27 27 26 26 26 25 25 25 25 26 27 28 29 30 31 32 33 35 35 36 36 37 37 37 37 38 39 40 40 41 41 42 42 42 42 43 43 42 41 40 40 39 38 38 38 39 41 44 47
29 30 30 31 32 32 33 32 31 30 30 29 29 29 29 29 28 27 26 26 26 26 27 27 27 27 27 27 27 28 30 31 31 31 31 31 30 30 29 29 29 28 27 27 26 26 27 28 30 32 33 34 36 37 38 39 40 41 42 43 43 44 45 45 45 46 46 46 46 46 46 46 45 45 44 43 43 42 41 41 40 40 39 39 40 43
31 32 32 33 33 34 34 34 33 32 32 31 31 31 30 30 30 29 28 27 27 27 27 28 28 29 29 29 30 31 33 35 36 37 37 36 35 34 32 31 30 30 29 28 28 28 29 30 32 34 36 38 39 41 42 44 45 47 48 48 49 49 50 49 49 49 48 48 48 47 47 46 46 45 45 44 43 43 42 42 42 41 41 41 41 41
32 33 34 35 35 35 35 35 35 34 34 33 32 32 32 31 31 31 30 29 29 28 29 29 29 30 31 32 33 35 36 38 39 40 40 39 39 37 36 34 33 32 31 31 31 31 32 34 35 37 40 42 44 46 48 50 51 52 52 52 51 51 50 50 49 48 48 47 47 46 46 46 45 45 45 45 44 44 43 43 43 43 43 43 43 43
34 34 36 36 36 36 37 36 36 35 35 34 33 33 32 32 32 32 32 31 31 30 30 30 31 32 33 35 37 38 39 40 41 41 42 42 41 40 39 37 36 36 35 35 35 36 37 39 42 44 46 49 51 52 53 54 54 53 53 51 50 49 48 47 47 46 46 45 45 45 45 45 46 46 46 46 46 46 46 46 46 47 47 47 47 47
36 36 37 37 38 37 37 37 36 36 35 35 35 34 34 33 32 32 32 32 32 32 32 32 33 34 36 38 39 41 41 42 42 42 43 43 43 42 42 41 40 40 40 40 41 43 45 47 50 52 53 54 54 54 53 53 52 51 50 49 48 47 47 46 46 46 45 46 46 47 47 47 48 49 49 50 50 51 51 52 52 52 53 53 53 54
39 38 38 38 38 38 38 37 37 36 35 35 35 35 34 34 33 33 32 32 32 33 35 35 35 36 37 39 40 42 42 42 42 43 44 44 45 44 44 43 43 43 44 46 48 50 52 54 55 55 55 54 53 51 50 49 49 48 48 47 47 47 47 47 48 48 49 49 49 50 50 51 51 52 53 54 55 56 56 57 58 58 59 59 59 60
40 40 40 39 39 39 38 37 37 36 36 35 35 35 35 34 33 33 33 32 33 34 36 37 37 37 37 38 39 41 42 42 42 42 44 45 45 45 45 45 45 47 48 51 53 54 55 54 54 53 52 51 49 48 47 47 47 47 47 47 47 48 48 49 50 51 52 53 53 53 53 53 54 54 55 56 57 58 59 60 60 61 61 62 62 62
41 40 40 40 39 39 38 38 37 36 36 35 35 34 34 34 34 34 33 33 33 34 36 38 38 38 38 38 39 40 41 42 42 43 44 45 45 45 46 47 48 50 53 54 54 53 52 50 50 49 49 48 48 48 48 48 49 49 49 50 51 51 52 52 53 54 55 56 56 57 57 57 56 56 56 57 57 58 59 60 61 61 61 61 62 62
42 41 40 39 39 39 38 38 37 36 36 35 35 34 34 35 35 35 34 34 34 34 36 38 39 39 39 39 39 40 41 43 43 44 44 45 46 47 47 50 52 54 55 54 51 49 47 46 46 46 47 48 49 51 52 52 53 53 54 55 55 56 56 57 57 58 58 59 60 60 60 60 60 59 59 58 58 58 58 59 59 60 60 60 60 59
41 40 40 39 38 38 38 37 37 37 36 36 35 35 35 35 36 36 36 36 36 36 37 38 39 40 40 40 41 42 42 43 44 44 45 46 47 48 50 53 55 56 55 52 49 47 46 46 45 45 47 50 53 55 56 57 58 58 59 59 59 59 59 60 60 61 62 63 63 63 63 64 63 63 62 61 60 59 58 58 58 58 58 58 58 57
40 39 39 38 38 38 38 37 37 37 37 37 37 36 36 36 37 37 38 38 38 38 39 40 40 40 39 41 42 43 44 44 44 44 44 46 48 50 54 56 55 54 52 51 49 48 48 48 47 47 47 51 54 57 60 61 61 62 62 61 61 60 61 62 63 64 65 66 66 66 66 66 65 65 64 63 62 61 60 59 58 58 57 57 57 56
39 39 39 38 38 38 38 38 37 37 37 37 36 36 36 37 38 39 40 40 40 40 40 41 41 41 41 42 43 44 44 44 44 44 44 46 48 52 56 56 54 52 50 50 49 48 49 49 49 49 48 50 53 56 59 61 62 62 62 62 61 61 62 64 65 66 67 68 68 68 68 67 66 66 65 65 64 63 63 62 61 60 60 59 57 57
38 38 38 38 38 37 37 38 38 38 37 37 37 38 38 39 41 42 42 42 41 41 42 43 43 43 42 42 43 43 44 44 45 45 45 47 49 52 56 56 54 51 49 49 49 49 49 50 50 50 50 50 51 53 56 59 61 61 61 61 61 62 64 66 67 69 69 69 69 69 68 68 67 67 66 66 65 65 64 64 63 63 62 61 60 59
38 38 37 37 37 37 37 38 39 39 39 39 39 40 41 42 43 44 44 43 43 43 44 44 45 45 44 42 41 43 46 48 50 50 50 50 51 53 54 54 53 50 48 48 48 49 49 50 50 50 49 49 50 51 53 55 57 58 59 60 61 63 66 68 69 70 70 71 71 70 70 69 68 68 67 67 66 66 65 65 64 63 62 62 61 61
37 37 36 36 36 37 38 38 39 40 40 41 41 42 43 44 44 45 45 45 45 45 46 46 46 46 46 43 42 44 50 54 56 56 56 55 53 53 53 53 52 49 47 45 45 46 48 49 49 49 49 49 49 50 51 52 54 55 56 59 61 65 67 69 70 71 71 72 72 72 72 71 70 70 69 68 68 67 66 66 65 65 65 64 64 64
36 36 36 36 36 37 39 40 40 41 42 43 44 44 45 45 46 46 45 45 46 47 47 48 48 48 47 46 46 49 55 59 61 62 62 60 56 52 51 51 49 47 44 42 42 43 45 46 47 47 48 48 49 49 50 51 52 53 55 58 62 65 67 69 70 71 72 72 73 73 73 72 72 71 70 70 69 68 68 68 68 68 68 68 68 68
36 37 37 37 38 39 40 41 42 43 44 45 46 46 47 46 46 46 46 46 47 48 49 49 49 49 48 50 51 54 58 62 64 65 65 63 57 52 49 49 48 46 43 40 39 40 43 44 45 46 47 47 48 49 49 50 51 53 56 60 63 65 66 68 69 70 72 72 73 73 73 73 72 72 71 71 70 70 70 70 71 71 71 71 71 71
38 38 39 40 41 42 42 43 43 43 44 46 47 48 48 47 47 47 47 47 48 49 50 50 50 50 51 54 56 58 60 64 66 67 67 64 58 52 49 49 48 46 42 39 38 39 42 43 44 45 46 47 48 49 49 50 53 55 59 61 63 64 65 67 69 71 72 73 73 73 73 73 72 72 71 71 71 71 72 72 73 73 73 73 73 73
40 40 40 41 42 42 42 41 41 42 43 45 47 48 48 48 48 48 48 49 49 50 50 51 51 53 55 58 59 61 63 66 67 68 67 65 61 56 51 50 48 46 42 40 39 40 43 43 44 44 45 46 47 48 49 51 54 57 60 61 62 64 65 67 69 71 72 73 73 73 73 72 72 72 72 72 72 72 73 73 73 73 74 74 74 74
42 41 39 40 41 42 42 42 43 43 44 46 47 47 47 47 48 48 49 50 51 51 51 52 53 55 58 60 62 62 63 65 67 68 68 66 63 58 52 50 48 46 44 43 43 44 45 45 45 45 45 46 47 48 50 53 56 58 60 61 62 63 65 68 70 72 73 73 73 73 73 73 73 73 73 73 73 73 73 73 72 72 72 72 71 71
45 44 43 44 44 44 44 45 46 46 46 46 46 46 46 48 49 50 51 51 52 53 53 53 54 56 59 62 64 64 64 65 67 69 69 67 64 59 55 52 51 49 47 46 46 47 47 46 46 46 46 47 47 49 52 55 57 59 59 60 61 64 66 69 71 73 74 74 74 73 73 73 73 72 72 72 72 72 72 71 70 70 69 69 69 68
46 46 46 45 45 46 47 48 48 49 49 49 49 50 50 51 51 52 52 53 53 54 54 54 55 57 60 64 66 65 65 65 67 68 69 68 65 61 57 54 52 51 49 49 49 49 49 48 47 47 47 48 49 52 55 57 58 59 59 60 61 64 68 71 73 74 75 75 74 74 73 73 72 71 71 70 70 70 70 69 68 67 67 67 67 67
44 45 47 48 48 48 48 48 49 50 51 51 52 53 53 53 54 54 55 55 55 55 55 55 57 59 62 65 67 67 66 66 68 69 70 68 65 61 57 55 53 52 51 51 52 53 53 51 50 50 50 52 54 57 59 60 60 59 59 60 63 66 69 72 75 76 76 76 75 74 73 72 71 70 69 69 69 69 68 68 67 66 65 65 65 65
42 45 49 50 50 49 48 48 49 50 51 52 52 53 53 53 54 54 55 56 56 56 56 57 59 61 64 67 68 68 68 69 70 71 71 69 66 61 57 55 54 54 53 54 55 57 56 55 55 56 57 59 60 62 62 62 62 61 61 62 65 68 71 74 76 77 77 76 75 74 73 71 70 70 69 69 68 68 68 67 66 65 64 64 64 64
42 46 49 50 49 48 48 49 49 49 50 51 52 52 51 52 52 53 54 56 57 58 59 61 63 65 67 68 69 69 70 71 72 72 71 69 66 62 59 57 56 56 57 58 58 59 60 60 61 63 65 67 67 67 66 65 64 63 64 65 68 70 73 76 77 78 77 76 75 74 73 72 71 70 69 69 68 68 67 66 65 64 63 63 63 63
44 48 50 49 47 46 45 46 46 47 48 49 50 50 49 50 51 52 54 57 60 62 64 65 67 68 70 69 69 69 70 71 72 72 71 69 67 64 61 60 59 59 60 61 61 62 63 64 67 69 71 72 71 71 70 68 67 67 67 69 71 73 75 77 78 78 78 77 76 75 74 72 71 70 69 69 68 68 67 65 64 63 63 63 62 62
47 50 50 49 48 47 47 47 47 48 48 49 50 50 51 51 52 53 55 59 63 65 66 68 70 71 72 73 72 71 71 70 71 71 70 69 66 64 62 61 61 62 64 66 66 67 68 70 72 73 73 73 74 73 73 71 71 71 71 72 74 75 77 78 79 79 78 77 76 75 74 72 71 70 69 69 68 67 66 66 64 64 63 63 62 62
50 52 52 52 51 50 49 48 48 48 48 49 49 50 52 53 54 56 58 61 64 67 69 70 72 73 74 75 75 74 72 70 69 69 68 67 66 64 64 64 64 66 69 71 73 74 75 75 75 74 74 74 74 74 73 73 72 73 73 74 75 76 77 78 79 79 78 77 76 75 74 72 71 70 69 69 69 68 67 66 65 64 64 63 63 63
50 51 52 51 50 48 46 46 47 47 48 49 50 51 54 56 58 59 61 64 66 68 70 72 74 74 75 76 77 76 74 72 70 69 68 67 67 66 66 67 68 70 74 76 78 79 80 78 77 76 76 75 75 74 73 73 72 73 74 75 76 77 77 78 79 79 78 77 76 75 74 72 71 70 70 70 69 69 68 67 66 65 64 64 64 63
45 46 47 47 45 44 44 45 47 48 49 50 51 53 56 59 61 63 64 67 69 71 73 74 74 74 75 76 76 76 75 74 72 71 69 69 69 69 69 70 72 74 77 79 80 81 81 80 79 78 77 76 76 75 74 73 72 73 73 75 76 76 77 77 78 78 77 76 75 74 73 72 71 71 70 70 69 69 68 67 66 65 65 64 64 64
38 39 41 41 42 43 45 46 48 49 50 51 53 55 58 61 64 66 68 70 72 73 74 74 74 74 75 76 76 76 75 75 73 72 71 71 71 71 70 72 75 78 79 80 81 81 82 81 81 80 79 78 77 76 76 74 73 73 74 75 76 76 76 77 76 76 75 74 73 72 72 71 71 70 70 69 69 68 67 66 66 65 65 64 64 64
36 37 39 41 43 45 47 48 50 51 52 52 54 57 60 63 66 69 71 73 74 75 74 74 73 74 76 77 77 76 75 74 73 72 71 71 71 71 72 75 78 80 80 80 80 81 82 81 81 81 80 79 78 77 77 76 76 75 75 76 77 77 77 77 76 75 73 72 71 70 70 69 69 69 69 68 68 67 67 66 65 65 64 64 64 64
36 38 40 42 44 46 48 50 51 52 53 54 56 59 62 65 69 71 73 75 75 75 75 74 73 74 75 76 76 76 74 73 71 71 70 70 71 73 75 78 79 80 81 81 81 81 81 81 81 81 81 80 79 78 78 78 77 77 77 77 77 78 78 77 76 75 73 72 70 69 69 68 68 68 68 67 67 67 66 66 65 65 64 64 63 63
37 39 41 43 45 48 50 52 53 54 55 56 58 60 64 67 71 73 75 76 77 76 76 75 74 74 74 75 75 75 74 72 71 70 70 70 72 74 77 79 80 80 80 81 81 81 81 81 80 80 80 80 80 79 79 78 78 77 77 77 77 78 79 78 77 75 74 73 71 70 69 68 68 68 67 67 67 67 66 65 65 65 64 63 62 62
38 40 42 44 47 50 52 53 54 55 56 58 60 62 65 69 72 75 77 77 77 77 76 76 75 75 75 75 75 74 73 72 71 70 70 71 73 75 78 79 79 79 79 79 79 79 79 79 79 79 79 80 80 80 80 79 78 77 77 77 77 78 78 78 77 76 75 74 72 71 70 69 69 69 68 68 68 67 66 65 65 64 63 62 62 61
39 41 43 46 49 52 54 54 54 55 57 59 61 63 66 70 73 76 78 78 78 78 77 77 77 77 76 76 76 75 74 73 72 72 71 73 74 76 78 78 78 77 77 77 78 78 78 78 78 78 78 78 79 79 79 80 79 78 77 77 77 77 77 78 77 76 75 74 73 72 71 70 70 69 69 68 68 67 66 65 64 64 63 62 61 61
41 43 45 48 51 54 55 54 55 56 57 59 62 64 67 71 74 77 79 79 79 78 78 79 78 78 78 78 77 77 76 76 75 74 74 75 75 76 77 77 78 78 78 78 78 79 78 78 78 77 77 78 78 79 79 79 79 79 78 78 77 76 76 76 76 75 75 74 73 72 72 71 70 70 69 68 68 67 66 65 64 63 62 62 61 60
42 45 47 50 53 55 55 55 55 56 58 60 62 65 69 73 76 78 79 78 78 78 78 79 79 79 79 78 78 77 77 77 76 76 75 75 75 76 76 76 76 77 77 78 78 79 79 79 78 78 77 77 77 78 78 79 79 79 79 78 78 76 75 75 75 75 74 74 73 73 72 72 71 70 69 68 67 67 66 65 64 63 62 61 60 60
44 47 49 52 54 56 56 56 56 57 59 61 64 66 70 73 76 77 78 77 77 78 78 79 80 80 79 78 77 76 76 75 75 75 75 75 76 76 75 75 75 75 75 76 76 76 77 77 77 77 77 76 76 77 77 77 78 79 79 79 78 77 76 75 74 74 73 73 73 72 72 71 71 70 69 68 67 66 65 65 64 63 62 61 60 60
47 49 51 53 55 56 56 57 58 59 60 63 65 66 69 72 75 77 78 78 78 78 79 80 80 80 80 79 78 76 75 74 74 75 75 76 76 75 75 74 74 73 73 73 73 73 73 74 74 75 75 75 75 75 75 76 76 77 78 78 78 78 77 76 74 73 72 72 72 72 72 71 70 70 68 67 67 66 65 65 63 63 62 61 60 60
49 50 52 54 55 56 57 57 58 59 61 62 63 65 68 71 74 76 78 78 78 77 78 79 80 80 80 79 78 77 75 74 74 74 75 75 75 74 73 73 72 72 72 72 72 72 72 72 72 73 73 73 73 74 74 74 74 75 76 77 77 78 77 76 75 73 73 72 72 72 72 72 71 70 69 68 67 66 65 64 64 63 62 61 60 60
49 51 52 54 55 55 56 56 58 59 60 62 63 65 67 70 73 75 77 77 77 77 77 78 79 79 79 79 78 77 76 74 73 72 73 74 73 73 72 72 71 71 71 71 71 71 71 71 71 71 71 72 72 73 73 73 73 73 74 75 75 76 76 75 75 75 74 74 74 74 73 72 72 71 69 68 67 66 65 64 63 62 62 61 61 60
51 52 54 54 55 55 55 56 58 59 60 62 63 65 67 69 71 73 74 75 76 76 76 77 78 78 77 78 77 77 75 74 72 71 70 70 71 70 70 70 70 70 70 70 70 70 70 70 70 70 71 71 72 73 73 73 73 73 73 73 74 74 74 75 75 75 75 75 75 75 74 73 72 71 69 68 67 66 65 64 63 62 62 61 61 61
53 55 55 55 55 55 56 57 58 59 61 62 64 65 66 67 68 70 71 72 73 74 75 76 76 76 76 76 75 75 74 73 71 69 68 68 68 68 68 67 67 68 68 68 69 69 69 69 70 71 72 73 73 74 74 74 74 74 73 73 73 73 74 74 74 75 75 75 75 74 73 72 71 70 69 68 66 65 64 63 63 62 62 61 61 61
54 55 55 55 55 56 57 58 59 60 61 63 64 64 65 65 66 67 68 69 71 72 73 73 73 73 74 73 73 72 73 72 71 70 70 69 68 68 67 67 66 66 66 67 67 68 69 69 71 72 73 74 75 75 75 75 75 74 74 74 74 74 74 73 73 74 74 74 73 72 71 70 70 69 68 67 66 65 63 63 63 62 62 62 61 61
54 55 55 56 57 58 58 59 59 60 61 62 64 64 64 64 65 66 67 67 69 70 70 71 71 72 72 72 71 71 71 72 72 72 72 71 70 69 69 68 67 67 67 67 67 67 68 69 71 72 73 75 76 76 76 76 76 76 76 75 75 74 74 73 73 72 72 72 71 71 70 69 69 68 68 67 66 64 63 63 63 63 63 62 62 62
54 55 56 57 58 58 59 59 60 60 61 62 63 63 63 63 64 65 65 67 68 69 70 70 71 71 72 71 71 71 71 73 73 74 74 73 72 72 71 70 70 69 69 69 69 70 71 72 72 72 73 74 76 76 77 76 77 77 77 76 75 75 74 73 73 72 71 70 70 69 69 69 68 68 67 67 66 65 64 64 64 64 64 63 63 63
55 56 57 57 58 59 59 60 60 61 61 61 62 63 63 64 64 65 65 66 68 69 69 70 70 71 72 71 71 71 72 73 74 75 75 74 73 73 73 72 71 71 71 72 73 74 75 75 74 74 73 74 75 76 76 76 77 77 77 76 76 75 75 74 73 72 71 70 70 69 69 69 68 68 67 67 67 66 66 66 66 65 65 65 64 64